Terminal Aerodrome Forecast
Issued by NWS Missoula, MT

Home | Current Version | Previous Version | Text Only | Print | Product List | Glossary On
Versions: 1 2 3 4 5 6 7 8 9 10 11 12 13 14 15 16 17
000
FTUS45 KMSO 290530
TAFBTM
TAF
KBTM 290530Z 2906/3006 31008KT P6SM FEW050
     FM291800 28012G20KT P6SM BKN200
     FM300200 30005KT P6SM SKC=

USA.gov is the U.S. government's official web portal to all federal, state and local government web resources and services.